Location: Unspecified
(0.0000°N, 0.0000°E)
Time: 17:40:10
(UTC+01:00)

Cosmos 2369 Rocket - Visible Passes

Search period start: 30 October 2014 00:00
Search period end: 09 November 2014 00:00
Orbit: 829 x 853 km, 71.0° (Epoch: 29 October)

Date Brightness Start Highest point End Pass type
(mag) Time Alt. Az. Time Alt. Az. Time Alt. Az.
05 Nov 4.4 20:36:55 10° N 20:37:21 12° N 20:37:21 12° N visible
06 Nov 2.0 20:21:41 10° N 20:27:21 71° ENE 20:33:01 10° SSE visible
07 Nov 2.1 20:06:28 10° N 20:12:06 66° ENE 20:17:44 10° SSE visible
08 Nov 2.2 19:51:15 10° N 19:56:51 61° ENE 20:02:27 10° SSE visible
